Regional Weather Roundup
Issued by NWS

Home | Current Version | Previous Version | Text Only | Print | Product List | Glossary On
Versions: 1 2 3 4 5 6 7 8 9 10 11 12 13 14 15 16 17 18 19 20 21 22 23 24 25 26 27 28 29 30 31 32 33 34 35 36 37 38 39 40 41 42 43 44 45 46 47 48 49 50
696
ASUS43 KMPX 170710
RWRMN
WEATHER ROUNDUP FOR MINNESOTA
NATIONAL WEATHER SERVICE TWIN CITIES/CHANHASSEN MN
100 AM CST SUN FEB 17 2019


NOTE: "FAIR" INDICATES FEW OR NO CLOUDS BELOW 12,000 FEET WITH NO
SIGNIFICANT WEATHER AND/OR OBSTRUCTIONS TO VISIBILITY. N/A MEANS
CURRENT SKY AND/OR WEATHER CONDITIONS ARE NOT AVAILABLE.

MNZ060>063-068>070-170800-
   Twin Cities Metro

CITY           SKY/WX    TMP DP  RH WIND       PRES   REMARKS
TWIN CITIES    CLOUDY    19  10  68 E7        30.02F WCI  10
ST PAUL        CLOUDY    19   8  62 E6        30.05S WCI  11
CRYSTAL        CLOUDY    17  10  74 NE5       30.02S WCI  10
BLAINE         CLOUDY    19  12  73 NE3       30.02F
LAKEVILLE        N/A     16  12  86 E7        30.01S WCI   6
EDEN PRAIRIE   FAIR      19   9  65 NE7       30.00F WCI  10
SOUTH ST PAUL  FAIR      19  10  67 E5        30.03S WCI  12
LAKE ELMO        N/A     19  10  68 NE5       30.04S WCI  13
$$
MNZ001>005-007-008-013>017-022>024-027-028-170800-
   Northwest Minnesota

CITY           SKY/WX    TMP DP  RH WIND       PRES   REMARKS
BEMIDJI        CLOUDY    13   4  69 E7        30.06R WCI   2
HALLOCK        FAIR      -4  -8  84 CALM      30.15S
ROSEAU         FAIR       1  -2  85 NE9       30.15R WCI -14
WARROAD        FAIR      -2  -6  84 NE6       30.15S WCI -14
THIEF RVR FALL CLOUDY     9   3  77 NE9       30.10R WCI  -4
CROOKSTON      FAIR      -6  -9  84 N5        30.11S WCI -17
FOSSTON        CLOUDY    10   1  67 E7        30.07S WCI   0
DETROIT LAKES  FAIR      16   9  73 E3        30.03F
MOORHEAD       CLOUDY    10   7  85 N7        30.07S WCI   0
PARK RAPIDS    CLOUDY    14   6  70 E6        30.02S WCI   5
MAHNOMEN       CLOUDY    13   7  74 NE9       30.05S WCI   1
$$
MNZ006-009>011-018-025>026-170800-
   North Central Minnesota

CITY           SKY/WX    TMP DP  RH WIND       PRES   REMARKS
BAUDETTE       FAIR      -3  -7  82 CALM      30.13R
FLAG ISLAND    FAIR       3   0  85 NE9       30.15S WCI -11
INTL FALLS     FAIR       5   1  83 NE5       30.15R WCI  -4
WASKISH        FAIR      10   5  79 E5        30.11R WCI   2
BIG FORK       FAIR       7   0  72 NE3       30.13S
LONGVILLE      CLOUDY    14   5  67 E3        30.06R
GRAND RAPIDS   FAIR      11   4  73 CALM      30.09R
ORR            FAIR       1  -2  85 CALM      30.09R
COOK           FAIR      -4  -8  84 CALM      30.11R
WALKER         CLOUDY    14   4  66 NE3       30.05S
$$
MNZ012-019>021-037-170800-
   Northeast Minnesota

CITY           SKY/WX    TMP DP  RH WIND       PRES   REMARKS
DULUTH         FAIR      15  10  80 E10       30.06S WCI   2
ELY            FAIR       0  -8  71 CALM      30.11R
HIBBING        FAIR      -3  -5  90 N3        30.08R
EVELETH        FAIR       0  -4  85 CALM      30.10R
DULUTH HARBOR  FAIR      16  12  86 NE12      30.13S WCI   3
TWO HARBORS    FAIR      10   7  85 NE3       30.09S
SILVER BAY     FAIR      12  12 100 NE3       30.10S
GRAND MARAIS     N/A     15   9  76 NE5       30.17S WCI   8
G MARAIS ARPRT CLOUDY     5   0  78 CALM      30.08R
$$
MNZ029>031-032-039>041-046>048-054>057-064-170800-
   West Central Minnesota

CITY           SKY/WX    TMP DP  RH WIND       PRES   REMARKS
FERGUS FALLS   CLOUDY    16   7  67 E7        30.03S WCI   6
WHEATON        CLOUDY    12   5  73 NE6       30.04S WCI   3
MORRIS         CLOUDY    16   7  67 E9        29.99S WCI   4
ALEXANDRIA     CLOUDY    18   6  59 E12       30.00R WCI   5
ELBOW LAKE     MOCLDY    13   6  74 NE6       30.01S WCI   3
WADENA         FAIR      10   3  72 NE5       30.02S WCI   2
GLENWOOD       FAIR      10   7  85 NE10      30.00S WCI  -3
APPLETON       CLOUDY    16  10  79 E5        30.00S WCI   9
BENSON         MOCLDY    16   9  73 E7        30.01R WCI   6
ORTONVILLE     CLOUDY    14   9  79 E3        29.99S
MADISON        CLOUDY    18  12  79 E3        30.00R
WILLMAR        CLOUDY    16  10  79 E9        30.01S WCI   4
$$
MNZ033>034-036-042>043-049>051-058-059-170800-
   Central Minnesota

CITY           SKY/WX    TMP DP  RH WIND       PRES   REMARKS
ST CLOUD       MOCLDY    12   5  73 NE5       30.03R WCI   4
SAUK CENTRE    FAIR      13   6  73 NE8       30.01S WCI   2
PAYNESVILLE    MOCLDY    11   8  85 NE6       30.01S WCI   2
AITKIN         FAIR      10   5  79 NE5       30.04S WCI   2
PINE RIVER     CLOUDY    12   7  79 E6        30.08S WCI   3
BRAINERD       FAIR      10   3  73 NE5       30.04S WCI   2
STAPLES        FAIR       9   3  78 CALM      30.03S
LONG PRAIRIE     N/A     14   9  79 E5        30.02R WCI   6
LITCHFIELD     CLOUDY    16  10  79 NE5       30.00S WCI   9
BUFFALO        CLOUDY    16   9  75 MISG      30.02F
MAPLE LAKE     CLOUDY    15  11  82 CALM      30.02F
HUTCHINSON     CLOUDY    17  11  79 NE7       30.00S WCI   7
$$
MNZ037-044-045-052-053-170800-
   East Central Minnesota

CITY           SKY/WX    TMP DP  RH WIND       PRES   REMARKS
PRINCETON      FAIR      14   9  79 CALM      30.04R
MORA           FAIR      12   9  85 CALM      30.07S
RUSH CITY      CLOUDY    17  10  76 NE6       30.06R WCI   8
MOOSE LAKE     MOCLDY    14  10  85 NE5       30.06R WCI   6
HINCKLEY       CLOUDY    18  12  79 NE3       30.06S
CLOQUET        FAIR      14   7  73 NE7       30.06F WCI   4
MCGREGOR       CLOUDY    12   9  85 NE7       30.06S WCI   2
$$
MNZ071>073-080-081-089-090-097-098-170800-
   Southwest Minnesota

CITY           SKY/WX    TMP DP  RH WIND       PRES   REMARKS
MONTEVIDEO     CLOUDY    16   9  73 E3        29.99S
GRANITE FALLS  CLOUDY    17  11  76 NE7       30.00S WCI   8
CANBY          CLOUDY    15  11  85 CALM      29.98S
MARSHALL       CLOUDY    14   9  80 E8        29.96F WCI   3
REDWOOD FALLS  MOCLDY    14   8  77 NE6       29.97F WCI   5
OLIVIA         CLOUDY    16  12  86 E5        29.98S WCI   9
PIPESTONE      LGT SNOW  12  10  92 E12       29.88R WCI  -2
WINDOM         FAIR      14  10  85 E10       29.90F WCI   1
WORTHINGTON    LGT SNOW  13  10  88 NE12      29.88S FOG     WCI  -1
JACKSON        CLOUDY    14  10  85 E10       29.89F WCI   1
TRACY          FAIR      14  11  85 NE5       29.93F WCI   7
$$
MNZ065>067-074>077-082>085-091>093-170800-
   South Central Minnesota

CITY           SKY/WX    TMP DP  RH WIND       PRES   REMARKS
MANKATO        FAIR      16   9  74 E8        29.97  WCI   5
NEW ULM        FAIR      14   7  73 E8        29.97S WCI   3
FAIRMONT       FAIR      15  11  83 E8        29.92F WCI   4
GLENCOE        MOCLDY    16  11  79 NE3       29.99S
OWATONNA       MOCLDY    16  10  79 E9        29.96F WCI   4
ALBERT LEA     CLOUDY    18  12  79 E8        29.93F WCI   7
$$
MNZ078>079-086>088-094>096-170800-
   Southeast Minnesota

CITY           SKY/WX    TMP DP  RH WIND       PRES   REMARKS
ROCHESTER      CLOUDY    15  10  80 NE10      29.96F WCI   2
RED WING       FAIR      18   7  62 E7        30.04R WCI   8
STANTON        FAIR      15   9  78 NE8       30.00S WCI   4
DODGE CENTER   MOCLDY    16   9  73 E9        29.95F WCI   4
AUSTIN         MOCLDY    21   9  58 E10       29.94F WCI  10
PRESTON        CLOUDY    17  11  77 E10       29.97F WCI   5
$$
ABBREVIATIONS USED IN REMARKS
   TC - TEMPERATURES IN CELSIUS
  WCI - WIND CHILL INDEX
   HX - HEAT INDEX
  VSB - VISIBILITY
$$




USA.gov is the U.S. government's official web portal to all federal, state and local government web resources and services.